Regional Weather Roundup
Issued by NWS Newport/Morehead, NC

Current Version | Previous Version | Graphics & Text | Print | Product List | Glossary Off
Versions: 1 2 3 4 5 6 7 8 9 10 11 12 13 14 15 16 17 18 19 20 21 22 23 24 25 26 27 28 29 30 31 32 33 34 35 36 37 38 39 40 41 42 43 44 45 46 47 48 49 50

000
ASUS42 KMHX 171213
RWRMHX
WEATHER ROUNDUP FOR EASTERN NORTH CAROLINA
NATIONAL WEATHER SERVICE NEWPORT/MOREHEAD CITY NC
700 AM EST FRI NOV 17 2017

NOTE: "FAIR" INDICATES FEW OR NO CLOUDS BELOW 12,000 FEET
WITH NO SIGNIFICANT WEATHER AND/OR OBSTRUCTIONS TO VISIBILITY

NCZ015>017-031-032-045>047-102-103-171300-
NORTH COAST

CITY           SKY/WX    TMP DP  RH WIND       PRES   REMARKS
EDENTON        PTCLDY    38  33  82 CALM      30.20R
ELIZABETH CITY CLEAR     40  33  76 NW7       30.19R
KITTY HAWK     SUNNY     44  35  69 CALM      30.15R
MANTEO         CLEAR     44  37  74 N8        30.17R

$$

NCZ045>047-081-094-103-104-171300-
CENTRAL COAST

CITY           SKY/WX    TMP DP  RH WIND       PRES   REMARKS
FRISCO         CLEAR     49  43  80 N8        30.16R

$$

NCZ095-097-098-100-101-171300-
SOUTHERN COAST

CITY           SKY/WX    TMP DP  RH WIND       PRES   REMARKS
BEAUFORT       CLEAR     43  38  82 N9        30.18R
CEDAR ISLAND   NOT AVBL
JACKSONVILLE   CLEAR     40  36  86 N8        30.20R
PINEY ISLAND   NOT AVBL
WILMINGTON     CLEAR     42  35  76 NE12      30.20R


$$

NCZ011>013-027>030-043-044-078>080-089-090>093-098-171300-
COASTAL PLAIN

CITY           SKY/WX    TMP DP  RH WIND       PRES   REMARKS
AHOSKIE        CLEAR     33  31  90 N5        30.22R
CLINTON        CLEAR     38  35  89 CALM      30.22R
ELIZABETHTOWN  NOT AVBL
GOLDSBORO      CLEAR     39  32  77 CALM      30.20R
GREENVILLE       N/A     32  32 100 CALM      30.23R FOG
HAVELOCK       NOT AVBL
KENANSVILLE    CLEAR     34  32  93 CALM      30.21R
KINSTON        CLEAR    N/A N/A N/A CALM      30.22R
NEW BERN       CLEAR     38  34  85 N6        30.22R
RICHLANDS      CLEAR     38  34  85 N5        30.21R
ROCKY MOUNT    CLEAR     32  32 100 CALM      30.22R
WASHINGTON     CLEAR     35  32  88 CALM      30.21R
WHITEVILLE     CLEAR     43  33  66 N5        30.19R

$$

AMZ130-135-150-152-154-156-158-170-250-252-270-ANZ085-086-088-633-658-670-171300-
MARINE OBSERVATIONS

STATION/POSITION TIME  TEMP    WIND        PRES    WAVE   SWELL
                       AIR SEA DIR/SP/G            HT/PER HT/PER
                 (UTC) (F)     (DEG/KT/KT) (MB)    (FT/S) (FT/S)
CHESAPEAKE LIGHT NOT AVBL
64 E VA BEACH    1150   51 61  330/ 19/ 25 1020.4    8/ 7   3/12
DUCK             1148   47 57  330/ 19/ 24 1020.8
2 E DUCK         1200      59                N/A     6/ 6   2/12
OREGON INLET     1136   46 57  330/ 12/ 16 1021.0
13E OREGON INLT  1148      62                N/A     8/ 7   7/ 7
HATTERAS CG      1148   50 59  360/ 18/ 20 1021.0
DIAMOND BUOY     1200   54 65  350/ 19/ 23 1020.6
CAPE LOOKOUT     1200   48      10/ 12/ 15 1022.0
BEAUFORT LAB     1148   47 59  360/ 11/ 13 1021.9
30 SE NEW RVR IN 1108   55 71   40/ 17/ 23 1020.9
30 SE NEW RVR IN 1130      71                N/A     6/ 5   2/11
27 SE WRIGHTSVLE 1108   57 68   50/ 23/ 33 1020.3
5 SE WRIGHTSVLE  1108   52 64   30/ 17/ 23 1020.0
225 S CAPE HAT   1150   69 77   10/ 17/ 21 1016.7    7/11   5/11
41 SE CHARLESTON 1200   64 75   40/ 19/ 23 1019.8

$$




USA.gov is the U.S. government's official web portal to all federal, state and local government web resources and services.